Time,TemperatureF,DewpointF,PressureIn,WindDirection,WindDirectionDegrees,WindSpeedMPH,WindSpeedGustMPH,Humidity,HourlyPrecipIn,Conditions,Clouds,dailyrainin,SoftwareType,DateUTC
2013-03-20 00:04:00,53.3,46.6,30.02,SSE,168,0.0,1.0,78,0.00,,,0.00,WeatherCatV1.10B1784,2013-03-20 07:04:00,
2013-03-20 00:09:00,53.4,46.0,30.02,South,181,0.0,1.0,76,0.00,,,0.00,WeatherCatV1.10B1784,2013-03-20 07:09:00,
2013-03-20 00:14:00,53.7,46.7,30.02,SSE,161,0.0,0.0,77,0.00,,,0.00,WeatherCatV1.10B1784,2013-03-20 07:14:00,
2013-03-20 00:19:00,53.9,45.8,30.02,South,176,0.0,1.0,74,0.00,,,0.00,WeatherCatV1.10B1784,2013-03-20 07:19:00,
2013-03-20 00:24:00,54.2,45.7,30.02,SSE,155,0.0,0.0,73,0.00,,,0.00,WeatherCatV1.10B1784,2013-03-20 07:24:00,
2013-03-20 00:29:00,54.3,46.2,30.02,South,172,3.0,3.0,74,0.00,,,0.00,WeatherCatV1.10B1784,2013-03-20 07:29:00,
2013-03-20 00:34:00,54.5,45.3,30.02,South,173,0.0,1.0,71,0.00,,,0.00,WeatherCatV1.10B1784,2013-03-20 07:34:00,
2013-03-20 00:39:00,54.6,45.8,30.02,South,173,0.0,0.0,72,0.00,,,0.00,WeatherCatV1.10B1784,2013-03-20 07:39:00,
2013-03-20 00:44:00,54.7,45.9,30.02,South,186,1.0,2.0,72,0.00,,,0.00,WeatherCatV1.10B1784,2013-03-20 07:44:00,
2013-03-20 00:49:00,54.7,46.2,30.02,South,179,0.0,0.0,73,0.00,,,0.01,WeatherCatV1.10B1784,2013-03-20 07:49:00,
2013-03-20 00:54:00,54.6,45.8,30.02,South,179,0.0,0.0,72,0.00,,,0.01,WeatherCatV1.10B1784,2013-03-20 07:54:00,
2013-03-20 00:59:00,54.6,45.8,30.02,South,179,0.0,0.0,72,0.00,,,0.01,WeatherCatV1.10B1784,2013-03-20 07:59:00,
2013-03-20 01:04:00,54.6,45.4,30.02,South,173,0.0,1.0,71,0.00,,,0.01,WeatherCatV1.10B1784,2013-03-20 08:04:00,
2013-03-20 01:09:00,54.7,45.5,30.02,South,179,0.0,2.0,71,0.00,,,0.01,WeatherCatV1.10B1784,2013-03-20 08:09:00,
2013-03-20 01:14:00,54.7,46.2,30.02,South,179,0.0,0.0,73,0.00,,,0.01,WeatherCatV1.10B1784,2013-03-20 08:14:00,
2013-03-20 01:19:00,54.7,46.2,30.02,South,179,0.0,0.0,73,0.00,,,0.01,WeatherCatV1.10B1784,2013-03-20 08:19:00,
2013-03-20 01:24:00,54.6,46.5,30.02,South,179,0.0,0.0,74,0.00,,,0.01,WeatherCatV1.10B1784,2013-03-20 08:24:00,
2013-03-20 01:29:00,54.5,47.1,30.02,South,179,0.0,0.0,76,0.00,,,0.01,WeatherCatV1.10B1784,2013-03-20 08:29:00,
2013-03-20 01:34:00,54.3,47.6,30.02,South,179,0.0,0.0,78,0.00,,,0.01,WeatherCatV1.10B1784,2013-03-20 08:34:00,
2013-03-20 01:39:00,54.0,47.3,30.02,South,179,0.0,0.0,78,0.00,,,0.01,WeatherCatV1.10B1784,2013-03-20 08:39:00,
2013-03-20 01:44:00,53.7,46.7,30.03,SE,129,0.0,0.0,77,0.00,,,0.01,WeatherCatV1.10B1784,2013-03-20 08:44:00,
2013-03-20 01:49:00,53.5,48.1,30.03,SE,129,0.0,0.0,82,0.00,,,0.01,WeatherCatV1.10B1784,2013-03-20 08:49:00,
2013-03-20 01:54:00,53.2,48.2,30.03,SE,129,0.0,0.0,83,0.00,,,0.01,WeatherCatV1.10B1784,2013-03-20 08:54:00,
2013-03-20 01:59:00,52.8,48.4,30.04,SE,129,0.0,0.0,85,0.00,,,0.01,WeatherCatV1.10B1784,2013-03-20 08:59:00,
2013-03-20 02:04:00,52.4,47.7,30.04,SE,129,0.0,0.0,84,0.00,,,0.01,WeatherCatV1.10B1784,2013-03-20 09:04:00,
2013-03-20 02:09:00,52.0,47.3,30.04,SSE,166,0.0,0.0,84,0.00,,,0.01,WeatherCatV1.10B1784,2013-03-20 09:09:00,
2013-03-20 02:14:00,51.8,46.8,30.04,SSE,150,0.0,1.0,83,0.00,,,0.01,WeatherCatV1.10B1784,2013-03-20 09:14:00,
2013-03-20 02:19:00,51.7,47.6,30.04,SSE,150,0.0,0.0,86,0.00,,,0.01,WeatherCatV1.10B1784,2013-03-20 09:19:00,
2013-03-20 02:24:00,51.4,46.7,30.04,SSE,152,0.0,0.0,84,0.00,,,0.02,WeatherCatV1.10B1784,2013-03-20 09:24:00,
2013-03-20 02:29:00,51.3,46.6,30.03,SSE,158,0.0,2.0,84,0.00,,,0.02,WeatherCatV1.10B1784,2013-03-20 09:29:00,
2013-03-20 02:34:00,51.3,47.3,30.03,SSE,158,0.0,0.0,86,0.00,,,0.02,WeatherCatV1.10B1784,2013-03-20 09:34:00,
2013-03-20 02:39:00,51.2,47.2,30.03,SSE,158,0.0,0.0,86,0.00,,,0.02,WeatherCatV1.10B1784,2013-03-20 09:39:00,
2013-03-20 02:44:00,51.1,47.4,30.04,SSE,158,0.0,0.0,87,0.00,,,0.02,WeatherCatV1.10B1784,2013-03-20 09:44:00,
2013-03-20 02:49:00,51.0,47.3,30.04,SSE,158,0.0,0.0,87,0.00,,,0.02,WeatherCatV1.10B1784,2013-03-20 09:49:00,
2013-03-20 02:54:00,50.9,47.8,30.04,SSE,158,0.0,0.0,89,0.00,,,0.02,WeatherCatV1.10B1784,2013-03-20 09:54:00,
2013-03-20 02:59:00,50.8,47.7,30.03,SSE,158,0.0,0.0,89,0.00,,,0.02,WeatherCatV1.10B1784,2013-03-20 09:59:00,
2013-03-20 03:04:00,50.7,47.9,30.03,SSE,158,0.0,0.0,90,0.00,,,0.02,WeatherCatV1.10B1784,2013-03-20 10:04:00,
2013-03-20 03:09:00,50.6,47.5,30.03,SSE,158,0.0,0.0,89,0.00,,,0.02,WeatherCatV1.10B1784,2013-03-20 10:09:00,
2013-03-20 03:14:00,50.4,47.3,30.02,SSE,158,0.0,0.0,89,0.00,,,0.02,WeatherCatV1.10B1784,2013-03-20 10:14:00,
2013-03-20 03:19:00,50.3,47.2,30.02,SSE,158,0.0,0.0,89,0.00,,,0.02,WeatherCatV1.10B1784,2013-03-20 10:19:00,
2013-03-20 03:24:00,50.2,45.6,30.02,SSE,155,0.0,1.0,84,0.00,,,0.02,WeatherCatV1.10B1784,2013-03-20 10:24:00,
2013-03-20 03:29:00,50.2,46.5,30.02,SSE,155,0.0,0.0,87,0.00,,,0.02,WeatherCatV1.10B1784,2013-03-20 10:29:00,
2013-03-20 03:34:00,50.2,46.8,30.02,SSE,155,0.0,0.0,88,0.00,,,0.02,WeatherCatV1.10B1784,2013-03-20 10:34:00,
2013-03-20 03:39:00,50.1,46.4,30.02,SSE,155,0.0,0.0,87,0.00,,,0.02,WeatherCatV1.10B1784,2013-03-20 10:39:00,
2013-03-20 03:44:00,50.0,46.0,30.02,SSE,155,0.0,0.0,86,0.00,,,0.02,WeatherCatV1.10B1784,2013-03-20 10:44:00,
2013-03-20 03:49:00,50.0,46.3,30.02,SSE,155,0.0,0.0,87,0.00,,,0.02,WeatherCatV1.10B1784,2013-03-20 10:49:00,
2013-03-20 03:54:00,50.0,46.6,30.02,SSE,155,0.0,0.0,88,0.00,,,0.02,WeatherCatV1.10B1784,2013-03-20 10:54:00,
2013-03-20 03:59:00,49.9,45.6,30.02,SSE,155,0.0,0.0,85,0.00,,,0.02,WeatherCatV1.10B1784,2013-03-20 10:59:00,
2013-03-20 04:05:00,49.9,46.5,30.02,SSE,155,0.0,0.0,88,0.00,,,0.02,WeatherCatV1.10B1784,2013-03-20 11:05:00,
2013-03-20 04:10:00,49.9,46.2,30.02,SSE,155,0.0,0.0,87,0.00,,,0.02,WeatherCatV1.10B1784,2013-03-20 11:10:00,
2013-03-20 04:15:00,49.9,46.5,30.01,SSE,155,0.0,0.0,88,0.00,,,0.02,WeatherCatV1.10B1784,2013-03-20 11:15:00,
2013-03-20 04:20:00,49.8,46.7,30.01,SSE,155,0.0,0.0,89,0.00,,,0.02,WeatherCatV1.10B1784,2013-03-20 11:20:00,
2013-03-20 04:25:00,49.7,46.3,30.01,SSE,155,0.0,0.0,88,0.00,,,0.02,WeatherCatV1.10B1784,2013-03-20 11:25:00,
2013-03-20 04:30:00,49.6,46.5,30.01,SSE,155,0.0,0.0,89,0.00,,,0.02,WeatherCatV1.10B1784,2013-03-20 11:30:00,
2013-03-20 04:35:00,49.5,46.1,30.01,SSE,155,0.0,0.0,88,0.00,,,0.02,WeatherCatV1.10B1784,2013-03-20 11:35:00,
2013-03-20 04:40:00,49.5,45.8,30.01,SSE,155,0.0,0.0,87,0.00,,,0.02,WeatherCatV1.10B1784,2013-03-20 11:40:00,
2013-03-20 04:45:00,49.4,46.0,30.00,NW,323,0.0,1.0,88,0.00,,,0.02,WeatherCatV1.10B1784,2013-03-20 11:45:00,
2013-03-20 04:50:00,49.4,45.4,30.00,NW,323,0.0,0.0,86,0.00,,,0.02,WeatherCatV1.10B1784,2013-03-20 11:50:00,
2013-03-20 04:55:00,49.4,45.4,30.00,NW,323,0.0,0.0,86,0.00,,,0.02,WeatherCatV1.10B1784,2013-03-20 11:55:00,
2013-03-20 05:00:00,49.4,44.5,30.01,NW,323,0.0,0.0,83,0.00,,,0.02,WeatherCatV1.10B1784,2013-03-20 12:00:00,
2013-03-20 05:05:00,49.4,44.1,30.01,NW,323,0.0,0.0,82,0.00,,,0.02,WeatherCatV1.10B1784,2013-03-20 12:05:00,
2013-03-20 05:10:00,49.5,43.6,30.01,NW,323,0.0,0.0,80,0.00,,,0.02,WeatherCatV1.10B1784,2013-03-20 12:10:00,
2013-03-20 05:15:00,49.6,44.3,30.01,NW,323,1.0,1.0,82,0.00,,,0.02,WeatherCatV1.10B1784,2013-03-20 12:15:00,
2013-03-20 05:20:00,49.6,44.3,30.01,NW,323,0.0,1.0,82,0.00,,,0.02,WeatherCatV1.10B1784,2013-03-20 12:20:00,
2013-03-20 05:25:00,49.6,44.0,30.01,NW,323,0.0,0.0,81,0.00,,,0.02,WeatherCatV1.10B1784,2013-03-20 12:25:00,
2013-03-20 05:30:00,49.6,43.4,30.00,NW,323,0.0,0.0,79,0.00,,,0.02,WeatherCatV1.10B1784,2013-03-20 12:30:00,
2013-03-20 05:35:00,49.7,42.8,30.00,NW,323,0.0,0.0,77,0.00,,,0.02,WeatherCatV1.10B1784,2013-03-20 12:35:00,
2013-03-20 05:40:00,49.8,43.2,30.00,NNW,343,0.0,0.0,78,0.00,,,0.02,WeatherCatV1.10B1784,2013-03-20 12:40:00,
2013-03-20 05:45:00,49.8,42.5,30.00,NNW,340,0.0,2.0,76,0.00,,,0.02,WeatherCatV1.10B1784,2013-03-20 12:45:00,
2013-03-20 05:50:00,49.9,42.3,30.00,NNE,18,0.0,0.0,75,0.00,,,0.02,WeatherCatV1.10B1784,2013-03-20 12:50:00,
2013-03-20 05:55:00,50.0,43.1,30.00,NE,50,0.0,0.0,77,0.00,,,0.02,WeatherCatV1.10B1784,2013-03-20 12:55:00,
2013-03-20 06:00:00,50.0,43.1,30.01,NE,50,0.0,0.0,77,0.00,,,0.02,WeatherCatV1.10B1784,2013-03-20 13:00:00,
2013-03-20 06:05:00,50.0,43.4,30.01,ENE,59,0.0,0.0,78,0.00,,,0.02,WeatherCatV1.10B1784,2013-03-20 13:05:00,
2013-03-20 06:10:00,49.9,44.0,30.01,East,90,0.0,0.0,80,0.00,,,0.02,WeatherCatV1.10B1784,2013-03-20 13:10:00,
2013-03-20 06:15:00,49.8,44.8,30.01,East,90,0.0,0.0,83,0.00,,,0.02,WeatherCatV1.10B1784,2013-03-20 13:15:00,
2013-03-20 06:20:00,49.6,45.3,30.01,East,90,0.0,0.0,85,0.00,,,0.02,WeatherCatV1.10B1784,2013-03-20 13:20:00,
2013-03-20 06:25:00,49.3,45.3,30.01,East,98,0.0,0.0,86,0.00,,,0.02,WeatherCatV1.10B1784,2013-03-20 13:25:00,
2013-03-20 06:30:00,49.1,45.4,30.01,East,98,0.0,0.0,87,0.00,,,0.02,WeatherCatV1.10B1784,2013-03-20 13:30:00,
2013-03-20 06:35:00,49.0,45.6,30.01,East,98,0.0,0.0,88,0.00,,,0.02,WeatherCatV1.10B1784,2013-03-20 13:35:00,
2013-03-20 06:40:00,48.9,45.5,30.01,East,98,0.0,0.0,88,0.00,,,0.02,WeatherCatV1.10B1784,2013-03-20 13:40:00,
2013-03-20 06:45:00,48.6,45.5,30.01,East,98,0.0,0.0,89,0.00,,,0.02,WeatherCatV1.10B1784,2013-03-20 13:45:00,
2013-03-20 06:50:00,48.5,45.7,30.01,East,98,0.0,0.0,90,0.00,,,0.02,WeatherCatV1.10B1784,2013-03-20 13:50:00,
2013-03-20 06:55:00,48.5,45.7,30.01,East,98,0.0,0.0,90,0.00,,,0.02,WeatherCatV1.10B1784,2013-03-20 13:55:00,
2013-03-20 07:00:00,48.4,45.9,30.02,East,98,0.0,0.0,91,0.00,,,0.02,WeatherCatV1.10B1784,2013-03-20 14:00:00,
2013-03-20 07:05:00,48.3,45.8,30.02,East,98,0.0,0.0,91,0.00,,,0.02,WeatherCatV1.10B1784,2013-03-20 14:05:00,
2013-03-20 07:10:00,48.4,45.6,30.02,East,98,0.0,0.0,90,0.00,,,0.02,WeatherCatV1.10B1784,2013-03-20 14:10:00,
2013-03-20 07:15:00,48.3,45.8,30.01,East,98,0.0,0.0,91,0.00,,,0.02,WeatherCatV1.10B1784,2013-03-20 14:15:00,
2013-03-20 07:20:00,48.3,45.5,30.01,East,83,0.0,0.0,90,0.00,,,0.02,WeatherCatV1.10B1784,2013-03-20 14:20:00,
2013-03-20 07:25:00,48.3,45.5,30.01,East,83,0.0,0.0,90,0.00,,,0.02,WeatherCatV1.10B1784,2013-03-20 14:25:00,
2013-03-20 07:30:00,48.3,45.2,30.01,East,83,0.0,0.0,89,0.00,,,0.02,WeatherCatV1.10B1784,2013-03-20 14:30:00,
2013-03-20 07:35:00,48.3,45.2,30.01,East,83,0.0,0.0,89,0.00,,,0.02,WeatherCatV1.10B1784,2013-03-20 14:35:00,
2013-03-20 07:40:00,48.4,45.3,30.01,East,83,0.0,0.0,89,0.00,,,0.02,WeatherCatV1.10B1784,2013-03-20 14:40:00,
2013-03-20 07:45:00,48.5,45.4,30.03,East,83,0.0,0.0,89,0.00,,,0.02,WeatherCatV1.10B1784,2013-03-20 14:45:00,
2013-03-20 07:50:00,48.6,45.5,30.03,East,83,0.0,0.0,89,0.00,,,0.02,WeatherCatV1.10B1784,2013-03-20 14:50:00,
2013-03-20 07:55:00,48.6,44.9,30.03,East,83,0.0,0.0,87,0.00,,,0.02,WeatherCatV1.10B1784,2013-03-20 14:55:00,
2013-03-20 08:00:00,48.7,45.0,30.03,East,83,0.0,0.0,87,0.00,,,0.02,WeatherCatV1.10B1784,2013-03-20 15:00:00,
2013-03-20 08:05:00,48.9,45.5,30.03,East,83,0.0,0.0,88,0.00,,,0.02,WeatherCatV1.10B1784,2013-03-20 15:05:00,
2013-03-20 08:10:00,49.0,45.3,30.03,East,83,0.0,0.0,87,0.00,,,0.02,WeatherCatV1.10B1784,2013-03-20 15:10:00,
2013-03-20 08:15:00,49.1,45.7,30.04,East,83,0.0,0.0,88,0.00,,,0.02,WeatherCatV1.10B1784,2013-03-20 15:15:00,
2013-03-20 08:20:00,49.2,45.5,30.04,East,83,0.0,0.0,87,0.00,,,0.02,WeatherCatV1.10B1784,2013-03-20 15:20:00,
2013-03-20 08:25:00,49.3,46.2,30.04,East,83,0.0,0.0,89,0.00,,,0.02,WeatherCatV1.10B1784,2013-03-20 15:25:00,
2013-03-20 08:30:00,49.3,45.9,30.03,East,83,0.0,0.0,88,0.00,,,0.02,WeatherCatV1.10B1784,2013-03-20 15:30:00,
2013-03-20 08:35:00,49.3,45.3,30.03,East,83,0.0,0.0,86,0.00,,,0.02,WeatherCatV1.10B1784,2013-03-20 15:35:00,
2013-03-20 08:40:00,49.3,45.0,30.03,East,83,0.0,0.0,85,0.00,,,0.02,WeatherCatV1.10B1784,2013-03-20 15:40:00,
2013-03-20 08:45:00,49.3,45.3,30.03,East,83,0.0,0.0,86,0.00,,,0.02,WeatherCatV1.10B1784,2013-03-20 15:45:00,
2013-03-20 08:50:00,49.3,44.0,30.03,East,83,0.0,0.0,82,0.00,,,0.02,WeatherCatV1.10B1784,2013-03-20 15:50:00,
2013-03-20 08:55:00,49.3,43.7,30.03,East,83,0.0,0.0,81,0.00,,,0.02,WeatherCatV1.10B1784,2013-03-20 15:55:00,
2013-03-20 09:00:00,49.4,44.5,30.03,East,83,0.0,0.0,83,0.00,,,0.02,WeatherCatV1.10B1784,2013-03-20 16:00:00,
2013-03-20 09:05:00,49.5,43.9,30.03,East,83,0.0,0.0,81,0.00,,,0.02,WeatherCatV1.10B1784,2013-03-20 16:05:00,
2013-03-20 09:10:00,49.6,43.4,30.03,East,83,0.0,0.0,79,0.00,,,0.02,WeatherCatV1.10B1784,2013-03-20 16:10:00,
2013-03-20 09:15:00,49.9,44.0,30.04,East,83,0.0,0.0,80,0.00,,,0.02,WeatherCatV1.10B1784,2013-03-20 16:15:00,
2013-03-20 09:20:00,50.0,44.7,30.04,East,83,0.0,0.0,82,0.00,,,0.02,WeatherCatV1.10B1784,2013-03-20 16:20:00,
2013-03-20 09:25:00,50.1,43.2,30.04,East,83,0.0,0.0,77,0.00,,,0.02,WeatherCatV1.10B1784,2013-03-20 16:25:00,
2013-03-20 09:30:00,50.2,44.3,30.05,East,83,0.0,0.0,80,0.00,,,0.02,WeatherCatV1.10B1784,2013-03-20 16:30:00,
2013-03-20 09:35:00,50.3,44.0,30.05,East,83,0.0,0.0,79,0.00,,,0.02,WeatherCatV1.10B1784,2013-03-20 16:35:00,
2013-03-20 09:40:00,50.3,41.6,30.05,SSE,157,0.0,2.0,72,0.00,,,0.02,WeatherCatV1.10B1784,2013-03-20 16:40:00,
2013-03-20 09:45:00,50.4,43.1,30.05,SSE,157,0.0,0.0,76,0.00,,,0.02,WeatherCatV1.10B1784,2013-03-20 16:45:00,
2013-03-20 09:50:00,50.5,41.1,30.05,SSE,157,0.0,0.0,70,0.00,,,0.02,WeatherCatV1.10B1784,2013-03-20 16:50:00,
2013-03-20 09:55:00,50.7,41.6,30.05,SSE,157,1.0,1.0,71,0.00,,,0.02,WeatherCatV1.10B1784,2013-03-20 16:55:00,
2013-03-20 10:00:00,50.9,42.9,30.05,SSE,157,0.0,0.0,74,0.00,,,0.02,WeatherCatV1.10B1784,2013-03-20 17:00:00,
2013-03-20 10:05:00,51.0,41.6,30.05,SSE,157,0.0,0.0,70,0.00,,,0.02,WeatherCatV1.10B1784,2013-03-20 17:05:00,
2013-03-20 10:10:00,51.1,42.4,30.05,SSE,157,0.0,0.0,72,0.00,,,0.02,WeatherCatV1.10B1784,2013-03-20 17:10:00,
2013-03-20 10:15:00,51.3,42.2,30.05,SSE,157,0.0,0.0,71,0.00,,,0.02,WeatherCatV1.10B1784,2013-03-20 17:15:00,
2013-03-20 10:20:00,51.4,38.0,30.05,SSE,168,0.0,2.0,60,0.00,,,0.02,WeatherCatV1.10B1784,2013-03-20 17:20:00,
2013-03-20 10:25:00,51.6,39.0,30.05,SSE,167,0.0,0.0,62,0.00,,,0.02,WeatherCatV1.10B1784,2013-03-20 17:25:00,
2013-03-20 10:30:00,51.9,38.0,30.05,SSE,167,0.0,0.0,59,0.00,,,0.02,WeatherCatV1.10B1784,2013-03-20 17:30:00,
2013-03-20 10:35:00,52.2,36.5,30.05,SSE,167,0.0,0.0,55,0.00,,,0.02,WeatherCatV1.10B1784,2013-03-20 17:35:00,
2013-03-20 10:40:00,52.7,33.6,30.05,SSE,160,0.0,0.0,48,0.00,,,0.02,WeatherCatV1.10B1784,2013-03-20 17:40:00,
2013-03-20 10:45:00,53.1,33.4,30.05,SSE,160,0.0,0.0,47,0.00,,,0.02,WeatherCatV1.10B1784,2013-03-20 17:45:00,
2013-03-20 10:50:00,53.4,34.7,30.05,SSE,162,0.0,2.0,49,0.00,,,0.02,WeatherCatV1.10B1784,2013-03-20 17:50:00,
2013-03-20 10:55:00,53.6,33.3,30.05,SSE,162,0.0,0.0,46,0.00,,,0.02,WeatherCatV1.10B1784,2013-03-20 17:55:00,
2013-03-20 11:00:00,53.8,36.6,30.05,SSE,158,0.0,0.0,52,0.00,,,0.02,WeatherCatV1.10B1784,2013-03-20 18:00:00,
2013-03-20 11:05:00,54.1,38.8,30.05,SSE,158,0.0,0.0,56,0.00,,,0.02,WeatherCatV1.10B1784,2013-03-20 18:05:00,
2013-03-20 11:10:00,54.2,35.5,30.05,SSE,154,0.0,0.0,49,0.00,,,0.02,WeatherCatV1.10B1784,2013-03-20 18:10:00,
2013-03-20 11:15:00,54.4,37.1,30.06,SSE,165,0.0,1.0,52,0.00,,,0.02,WeatherCatV1.10B1784,2013-03-20 18:15:00,
2013-03-20 11:20:00,54.4,32.9,30.06,SE,144,0.0,2.0,44,0.00,,,0.02,WeatherCatV1.10B1784,2013-03-20 18:20:00,
2013-03-20 11:25:00,54.6,39.2,30.06,SSE,151,0.0,0.0,56,0.00,,,0.02,WeatherCatV1.10B1784,2013-03-20 18:25:00,
2013-03-20 11:30:00,55.2,39.8,30.05,SSE,154,1.0,1.0,56,0.00,,,0.02,WeatherCatV1.10B1784,2013-03-20 18:30:00,
2013-03-20 11:35:00,56.1,40.2,30.05,SSE,154,0.0,2.0,55,0.00,,,0.02,WeatherCatV1.10B1784,2013-03-20 18:35:00,
2013-03-20 11:40:00,56.8,42.6,30.05,SSE,153,0.0,1.0,59,0.00,,,0.02,WeatherCatV1.10B1784,2013-03-20 18:40:00,
2013-03-20 11:45:00,57.0,39.1,30.05,SSE,160,0.0,3.0,51,0.00,,,0.02,WeatherCatV1.10B1784,2013-03-20 18:45:00,
2013-03-20 11:50:00,57.3,41.7,30.05,SSE,151,0.0,2.0,56,0.00,,,0.02,WeatherCatV1.10B1784,2013-03-20 18:50:00,
2013-03-20 11:55:00,57.8,40.3,30.05,SE,146,0.0,1.0,52,0.00,,,0.02,WeatherCatV1.10B1784,2013-03-20 18:55:00,
2013-03-20 12:00:00,58.2,42.6,30.06,SSE,161,0.0,4.0,56,0.00,,,0.02,WeatherCatV1.10B1784,2013-03-20 19:00:00,
2013-03-20 12:05:00,58.7,39.1,30.06,SE,138,2.0,2.0,48,0.00,,,0.02,WeatherCatV1.10B1784,2013-03-20 19:05:00,
2013-03-20 12:10:00,59.1,41.5,30.06,SE,129,0.0,1.0,52,0.00,,,0.02,WeatherCatV1.10B1784,2013-03-20 19:10:00,
2013-03-20 12:15:00,59.2,40.0,30.06,SSE,159,0.0,2.0,49,0.00,,,0.02,WeatherCatV1.10B1784,2013-03-20 19:15:00,
2013-03-20 12:20:00,59.0,40.9,30.06,SE,146,0.0,1.0,51,0.00,,,0.02,WeatherCatV1.10B1784,2013-03-20 19:20:00,
2013-03-20 12:25:00,58.8,39.2,30.06,East,86,0.0,1.0,48,0.00,,,0.02,WeatherCatV1.10B1784,2013-03-20 19:25:00,
2013-03-20 12:30:00,58.7,40.6,30.07,East,91,0.0,0.0,51,0.00,,,0.02,WeatherCatV1.10B1784,2013-03-20 19:30:00,
2013-03-20 12:35:00,58.3,38.7,30.07,SSE,156,0.0,1.0,48,0.00,,,0.02,WeatherCatV1.10B1784,2013-03-20 19:35:00,
2013-03-20 12:40:00,58.2,38.6,30.07,SSE,156,0.0,0.0,48,0.00,,,0.02,WeatherCatV1.10B1784,2013-03-20 19:40:00,
2013-03-20 12:45:00,57.9,39.9,30.07,SE,132,0.0,0.0,51,0.00,,,0.02,WeatherCatV1.10B1784,2013-03-20 19:45:00,
2013-03-20 12:50:00,57.7,38.7,30.07,ESE,115,1.0,1.0,49,0.00,,,0.02,WeatherCatV1.10B1784,2013-03-20 19:50:00,
2013-03-20 12:55:00,57.6,40.1,30.07,SE,128,0.0,1.0,52,0.00,,,0.02,WeatherCatV1.10B1784,2013-03-20 19:55:00,
2013-03-20 13:00:00,57.7,41.6,30.07,SE,142,0.0,2.0,55,0.00,,,0.02,WeatherCatV1.10B1784,2013-03-20 20:00:00,
2013-03-20 13:05:00,58.1,41.1,30.07,ENE,69,0.0,2.0,53,0.00,,,0.02,WeatherCatV1.10B1784,2013-03-20 20:05:00,
2013-03-20 13:10:00,58.4,43.2,30.07,ESE,110,0.0,0.0,57,0.00,,,0.02,WeatherCatV1.10B1784,2013-03-20 20:10:00,
2013-03-20 13:15:00,58.9,43.2,30.07,SE,135,0.0,3.0,56,0.00,,,0.02,WeatherCatV1.10B1784,2013-03-20 20:15:00,
2013-03-20 13:20:00,59.0,44.2,30.07,SE,133,0.0,0.0,58,0.00,,,0.02,WeatherCatV1.10B1784,2013-03-20 20:20:00,
2013-03-20 13:25:00,58.9,43.2,30.07,SE,127,0.0,1.0,56,0.00,,,0.02,WeatherCatV1.10B1784,2013-03-20 20:25:00,
2013-03-20 13:30:00,59.1,44.3,30.07,SSE,152,0.0,0.0,58,0.00,,,0.02,WeatherCatV1.10B1784,2013-03-20 20:30:00,
2013-03-20 13:36:00,59.2,44.4,30.07,SSE,154,0.0,1.0,58,0.00,,,0.02,WeatherCatV1.10B1784,2013-03-20 20:36:00,
2013-03-20 13:41:00,59.1,44.8,30.07,East,101,0.0,0.0,59,0.00,,,0.02,WeatherCatV1.10B1784,2013-03-20 20:41:00,
2013-03-20 13:46:00,59.0,44.7,30.07,SE,144,1.0,2.0,59,0.00,,,0.02,WeatherCatV1.10B1784,2013-03-20 20:46:00,
2013-03-20 13:51:00,59.0,45.1,30.07,SSE,150,0.0,1.0,60,0.00,,,0.02,WeatherCatV1.10B1784,2013-03-20 20:51:00,
2013-03-20 13:56:00,58.8,45.8,30.07,NNE,17,0.0,1.0,62,0.00,,,0.02,WeatherCatV1.10B1784,2013-03-20 20:56:00,
2013-03-20 14:01:00,58.4,45.0,30.07,North,352,0.0,1.0,61,0.00,,,0.02,WeatherCatV1.10B1784,2013-03-20 21:01:00,
2013-03-20 14:06:00,58.5,46.8,30.07,ESE,113,0.0,0.0,65,0.00,,,0.02,WeatherCatV1.10B1784,2013-03-20 21:06:00,
2013-03-20 14:11:00,59.0,46.4,30.07,SSE,158,0.0,1.0,63,0.00,,,0.02,WeatherCatV1.10B1784,2013-03-20 21:11:00,
2013-03-20 14:16:00,59.2,46.6,30.06,SSE,149,0.0,3.0,63,0.00,,,0.02,WeatherCatV1.10B1784,2013-03-20 21:16:00,
2013-03-20 14:21:00,59.1,46.9,30.06,East,99,0.0,0.0,64,0.00,,,0.02,WeatherCatV1.10B1784,2013-03-20 21:21:00,
2013-03-20 14:26:00,58.9,46.3,30.06,East,81,0.0,1.0,63,0.00,,,0.02,WeatherCatV1.10B1784,2013-03-20 21:26:00,
2013-03-20 14:31:00,58.8,47.1,30.06,ESE,105,0.0,1.0,65,0.00,,,0.02,WeatherCatV1.10B1784,2013-03-20 21:31:00,
2013-03-20 14:36:00,58.6,47.3,30.06,East,98,0.0,1.0,66,0.00,,,0.02,WeatherCatV1.10B1784,2013-03-20 21:36:00,
2013-03-20 14:41:00,58.5,47.2,30.06,SSE,159,0.0,0.0,66,0.00,,,0.02,WeatherCatV1.10B1784,2013-03-20 21:41:00,
2013-03-20 14:46:00,58.2,46.9,30.06,SSE,151,0.0,1.0,66,0.00,,,0.02,WeatherCatV1.10B1784,2013-03-20 21:46:00,
2013-03-20 14:51:00,58.0,47.1,30.06,NNE,19,0.0,2.0,67,0.00,,,0.02,WeatherCatV1.10B1784,2013-03-20 21:51:00,
2013-03-20 14:56:00,57.7,47.2,30.06,SE,138,0.0,1.0,68,0.00,,,0.02,WeatherCatV1.10B1784,2013-03-20 21:56:00,
2013-03-20 15:01:00,57.6,47.9,30.05,SE,138,0.0,0.0,70,0.00,,,0.02,WeatherCatV1.10B1784,2013-03-20 22:01:00,
2013-03-20 15:06:00,57.4,48.4,30.05,SE,138,0.0,0.0,72,0.00,,,0.02,WeatherCatV1.10B1784,2013-03-20 22:06:00,
2013-03-20 15:11:00,57.3,48.3,30.05,SSE,152,0.0,2.0,72,0.00,,,0.02,WeatherCatV1.10B1784,2013-03-20 22:11:00,
2013-03-20 15:16:00,57.1,48.2,30.05,SSE,148,1.0,2.0,72,0.00,,,0.02,WeatherCatV1.10B1784,2013-03-20 22:16:00,
2013-03-20 15:21:00,56.7,48.1,30.05,SSE,160,0.0,1.0,73,0.00,,,0.02,WeatherCatV1.10B1784,2013-03-20 22:21:00,
2013-03-20 15:26:00,56.4,48.6,30.05,SSE,155,0.0,0.0,75,0.00,,,0.02,WeatherCatV1.10B1784,2013-03-20 22:26:00,
2013-03-20 15:31:00,56.3,48.8,30.04,SE,125,0.0,1.0,76,0.00,,,0.02,WeatherCatV1.10B1784,2013-03-20 22:31:00,
2013-03-20 15:36:00,56.5,49.4,30.04,East,93,0.0,1.0,77,0.00,,,0.02,WeatherCatV1.10B1784,2013-03-20 22:36:00,
2013-03-20 15:41:00,57.0,49.5,30.04,SSE,155,0.0,3.0,76,0.00,,,0.02,WeatherCatV1.10B1784,2013-03-20 22:41:00,
2013-03-20 15:46:00,57.3,50.2,30.05,SSE,154,0.0,1.0,77,0.00,,,0.02,WeatherCatV1.10B1784,2013-03-20 22:46:00,
2013-03-20 15:51:00,57.4,49.5,30.05,SE,140,0.0,2.0,75,0.00,,,0.02,WeatherCatV1.10B1784,2013-03-20 22:51:00,
2013-03-20 15:56:00,57.3,49.4,30.05,SSE,149,0.0,0.0,75,0.00,,,0.02,WeatherCatV1.10B1784,2013-03-20 22:56:00,
2013-03-20 16:01:00,57.0,49.5,30.05,SE,144,2.0,3.0,76,0.00,,,0.02,WeatherCatV1.10B1784,2013-03-20 23:01:00,
2013-03-20 16:06:00,56.7,49.2,30.05,ESE,120,0.0,0.0,76,0.00,,,0.02,WeatherCatV1.10B1784,2013-03-20 23:06:00,
2013-03-20 16:11:00,56.6,49.1,30.05,ENE,75,0.0,0.0,76,0.00,,,0.02,WeatherCatV1.10B1784,2013-03-20 23:11:00,
2013-03-20 16:16:00,56.4,49.3,30.05,ESE,121,0.0,0.0,77,0.00,,,0.02,WeatherCatV1.10B1784,2013-03-20 23:16:00,
2013-03-20 16:21:00,56.2,49.4,30.05,SE,129,0.0,1.0,78,0.00,,,0.02,WeatherCatV1.10B1784,2013-03-20 23:21:00,
2013-03-20 16:26:00,56.2,49.8,30.05,SE,130,1.0,1.0,79,0.00,,,0.02,WeatherCatV1.10B1784,2013-03-20 23:26:00,
2013-03-20 16:31:00,56.1,49.7,30.05,SE,130,0.0,0.0,79,0.00,,,0.02,WeatherCatV1.10B1784,2013-03-20 23:31:00,
2013-03-20 16:36:00,56.0,49.6,30.05,SE,130,0.0,0.0,79,0.00,,,0.02,WeatherCatV1.10B1784,2013-03-20 23:36:00,
2013-03-20 16:41:00,55.8,49.7,30.05,SE,146,0.0,2.0,80,0.00,,,0.02,WeatherCatV1.10B1784,2013-03-20 23:41:00,
2013-03-20 16:46:00,55.8,50.1,30.05,SE,146,0.0,2.0,81,0.00,,,0.02,WeatherCatV1.10B1784,2013-03-20 23:46:00,
2013-03-20 16:51:00,55.8,50.4,30.05,SE,146,0.0,0.0,82,0.00,,,0.02,WeatherCatV1.10B1784,2013-03-20 23:51:00,
2013-03-20 16:56:00,55.8,50.4,30.05,SE,146,1.0,1.0,82,0.00,,,0.02,WeatherCatV1.10B1784,2013-03-20 23:56:00,
2013-03-20 17:01:00,55.7,50.3,30.05,SE,146,0.0,1.0,82,0.00,,,0.02,WeatherCatV1.10B1784,2013-03-21 00:01:00,
2013-03-20 17:06:00,55.5,50.1,30.05,West,259,0.0,0.0,82,0.00,,,0.02,WeatherCatV1.10B1784,2013-03-21 00:06:00,
2013-03-20 17:11:00,55.3,50.2,30.05,West,260,0.0,0.0,83,0.00,,,0.02,WeatherCatV1.10B1784,2013-03-21 00:11:00,
2013-03-20 17:16:00,55.1,50.4,30.05,West,260,0.0,0.0,84,0.00,,,0.02,WeatherCatV1.10B1784,2013-03-21 00:16:00,
2013-03-20 17:21:00,54.9,50.5,30.05,SSW,206,0.0,0.0,85,0.00,,,0.02,WeatherCatV1.10B1784,2013-03-21 00:21:00,
2013-03-20 17:26:00,54.6,50.2,30.05,SW,219,0.0,0.0,85,0.00,,,0.02,WeatherCatV1.10B1784,2013-03-21 00:26:00,
2013-03-20 17:31:00,54.4,50.3,30.05,SW,217,0.0,0.0,86,0.00,,,0.02,WeatherCatV1.10B1784,2013-03-21 00:31:00,
2013-03-20 17:36:00,54.2,50.1,30.05,South,188,0.0,1.0,86,0.00,,,0.02,WeatherCatV1.10B1784,2013-03-21 00:36:00,
2013-03-20 17:41:00,53.9,49.8,30.05,South,188,0.0,0.0,86,0.00,,,0.02,WeatherCatV1.10B1784,2013-03-21 00:41:00,
2013-03-20 17:46:00,53.8,50.0,30.04,South,188,0.0,0.0,87,0.00,,,0.02,WeatherCatV1.10B1784,2013-03-21 00:46:00,
2013-03-20 17:51:00,53.7,50.2,30.04,South,188,0.0,0.0,88,0.00,,,0.02,WeatherCatV1.10B1784,2013-03-21 00:51:00,
2013-03-20 17:56:00,53.7,50.2,30.04,South,188,0.0,0.0,88,0.00,,,0.02,WeatherCatV1.10B1784,2013-03-21 00:56:00,
2013-03-20 18:01:00,53.6,50.1,30.04,South,188,0.0,0.0,88,0.00,,,0.02,WeatherCatV1.10B1784,2013-03-21 01:01:00,
2013-03-20 18:06:00,53.7,50.5,30.04,South,188,0.0,0.0,89,0.00,,,0.02,WeatherCatV1.10B1784,2013-03-21 01:06:00,
2013-03-20 18:11:00,53.7,50.5,30.04,South,188,0.0,0.0,89,0.00,,,0.02,WeatherCatV1.10B1784,2013-03-21 01:11:00,
2013-03-20 18:16:00,53.7,50.5,30.04,South,188,0.0,0.0,89,0.00,,,0.02,WeatherCatV1.10B1784,2013-03-21 01:16:00,
2013-03-20 18:21:00,53.7,50.2,30.04,South,188,0.0,1.0,88,0.00,,,0.02,WeatherCatV1.10B1784,2013-03-21 01:21:00,
2013-03-20 18:26:00,53.7,50.2,30.04,South,174,0.0,1.0,88,0.00,,,0.02,WeatherCatV1.10B1784,2013-03-21 01:26:00,
2013-03-20 18:31:00,53.6,50.1,30.04,South,174,0.0,0.0,88,0.00,,,0.02,WeatherCatV1.10B1784,2013-03-21 01:31:00,
2013-03-20 18:36:00,53.5,50.0,30.04,South,174,0.0,0.0,88,0.00,,,0.02,WeatherCatV1.10B1784,2013-03-21 01:36:00,
2013-03-20 18:41:00,53.5,50.3,30.04,South,174,0.0,0.0,89,0.00,,,0.02,WeatherCatV1.10B1784,2013-03-21 01:41:00,
2013-03-20 18:46:00,53.4,50.5,30.04,South,174,0.0,1.0,90,0.00,,,0.02,WeatherCatV1.10B1784,2013-03-21 01:46:00,
2013-03-20 18:51:00,53.4,50.5,30.04,South,174,0.0,0.0,90,0.00,,,0.02,WeatherCatV1.10B1784,2013-03-21 01:51:00,
2013-03-20 18:56:00,53.2,50.3,30.04,South,174,0.0,0.0,90,0.00,,,0.02,WeatherCatV1.10B1784,2013-03-21 01:56:00,
2013-03-20 19:01:00,53.2,50.6,30.05,South,174,0.0,0.0,91,0.00,,,0.02,WeatherCatV1.10B1784,2013-03-21 02:01:00,
2013-03-20 19:06:00,53.0,50.4,30.05,South,174,0.0,0.0,91,0.00,,,0.02,WeatherCatV1.10B1784,2013-03-21 02:06:00,
2013-03-20 19:11:00,52.9,50.3,30.05,South,174,0.0,0.0,91,0.00,,,0.02,WeatherCatV1.10B1784,2013-03-21 02:11:00,
2013-03-20 19:16:00,52.7,50.1,30.05,South,174,0.0,0.0,91,0.00,,,0.02,WeatherCatV1.10B1784,2013-03-21 02:16:00,
2013-03-20 19:21:00,52.6,50.0,30.05,South,174,0.0,0.0,91,0.00,,,0.02,WeatherCatV1.10B1784,2013-03-21 02:21:00,
2013-03-20 19:26:00,52.4,49.8,30.05,South,174,0.0,0.0,91,0.00,,,0.02,WeatherCatV1.10B1784,2013-03-21 02:26:00,
2013-03-20 19:31:00,52.3,49.8,30.05,South,174,0.0,0.0,91,0.00,,,0.02,WeatherCatV1.10B1784,2013-03-21 02:31:00,
2013-03-20 19:36:00,52.2,49.7,30.05,South,174,0.0,0.0,91,0.00,,,0.02,WeatherCatV1.10B1784,2013-03-21 02:36:00,
2013-03-20 19:41:00,52.1,49.6,30.05,South,174,0.0,0.0,91,0.00,,,0.02,WeatherCatV1.10B1784,2013-03-21 02:41:00,
2013-03-20 19:46:00,51.9,49.6,30.04,South,174,0.0,0.0,92,0.00,,,0.02,WeatherCatV1.10B1784,2013-03-21 02:46:00,
2013-03-20 19:51:00,51.8,49.8,30.04,South,174,0.0,0.0,93,0.00,,,0.02,WeatherCatV1.10B1784,2013-03-21 02:51:00,
2013-03-20 19:56:00,51.7,49.7,30.04,South,174,0.0,0.0,93,0.00,,,0.02,WeatherCatV1.10B1784,2013-03-21 02:56:00,
2013-03-20 20:01:00,51.7,49.7,30.04,South,174,0.0,0.0,93,0.00,,,0.02,WeatherCatV1.10B1784,2013-03-21 03:01:00,
2013-03-20 20:06:00,51.6,49.9,30.04,South,174,0.0,0.0,94,0.00,,,0.02,WeatherCatV1.10B1784,2013-03-21 03:06:00,
2013-03-20 20:11:00,51.7,50.0,30.05,South,174,0.0,0.0,94,0.00,,,0.02,WeatherCatV1.10B1784,2013-03-21 03:11:00,
2013-03-20 20:16:00,51.7,50.0,30.05,South,174,0.0,0.0,94,0.00,,,0.02,WeatherCatV1.10B1784,2013-03-21 03:16:00,
2013-03-20 20:21:00,51.6,49.9,30.05,South,174,0.0,0.0,94,0.00,,,0.02,WeatherCatV1.10B1784,2013-03-21 03:21:00,
2013-03-20 20:26:00,51.6,49.9,30.05,South,174,0.0,0.0,94,0.00,,,0.02,WeatherCatV1.10B1784,2013-03-21 03:26:00,
2013-03-20 20:32:00,51.5,49.8,30.05,South,174,0.0,0.0,94,0.00,,,0.02,WeatherCatV1.10B1784,2013-03-21 03:32:00,
2013-03-20 20:37:00,51.5,49.8,30.05,South,174,0.0,0.0,94,0.00,,,0.02,WeatherCatV1.10B1784,2013-03-21 03:37:00,
2013-03-20 20:42:00,51.4,50.0,30.06,South,174,0.0,0.0,95,0.00,,,0.02,WeatherCatV1.10B1784,2013-03-21 03:42:00,
2013-03-20 20:47:00,51.3,49.9,30.06,South,174,0.0,0.0,95,0.00,,,0.02,WeatherCatV1.10B1784,2013-03-21 03:47:00,
2013-03-20 20:52:00,51.3,49.9,30.06,South,174,0.0,0.0,95,0.00,,,0.02,WeatherCatV1.10B1784,2013-03-21 03:52:00,
2013-03-20 20:57:00,51.3,49.9,30.06,South,174,0.0,0.0,95,0.00,,,0.02,WeatherCatV1.10B1784,2013-03-21 03:57:00,
2013-03-20 21:00:00,51.3,49.9,30.06,South,174,0.0,0.0,95,0.00,,,0.02,WeatherCatV1.10B1784,2013-03-21 04:00:00,
2013-03-20 21:01:00,51.2,49.8,30.06,South,174,0.0,0.0,95,0.00,,,0.02,WeatherCatV1.10B1784,2013-03-21 04:01:00,
2013-03-20 21:06:00,51.2,49.8,30.06,South,174,0.0,0.0,95,0.00,,,0.02,WeatherCatV1.10B1784,2013-03-21 04:06:00,
2013-03-20 21:11:00,51.1,49.7,30.06,South,174,0.0,0.0,95,0.00,,,0.02,WeatherCatV1.10B1784,2013-03-21 04:11:00,
2013-03-20 21:16:00,51.1,49.7,30.06,South,174,0.0,0.0,95,0.00,,,0.02,WeatherCatV1.10B1784,2013-03-21 04:16:00,
2013-03-20 21:21:00,51.0,49.9,30.06,South,174,0.0,0.0,96,0.00,,,0.02,WeatherCatV1.10B1784,2013-03-21 04:21:00,
2013-03-20 21:26:00,51.0,49.9,30.06,South,174,0.0,0.0,96,0.00,,,0.02,WeatherCatV1.10B1784,2013-03-21 04:26:00,
2013-03-20 21:31:00,51.0,49.9,30.06,South,174,0.0,0.0,96,0.00,,,0.02,WeatherCatV1.10B1784,2013-03-21 04:31:00,
2013-03-20 21:36:00,51.0,49.9,30.06,NW,317,0.0,2.0,96,0.00,,,0.02,WeatherCatV1.10B1784,2013-03-21 04:36:00,
2013-03-20 21:41:00,51.0,49.9,30.06,NW,318,0.0,1.0,96,0.00,,,0.02,WeatherCatV1.10B1784,2013-03-21 04:41:00,
2013-03-20 21:46:00,50.9,49.8,30.06,NNW,334,1.0,2.0,96,0.00,,,0.02,WeatherCatV1.10B1784,2013-03-21 04:46:00,
2013-03-20 21:51:00,50.9,49.8,30.06,North,350,0.0,2.0,96,0.00,,,0.02,WeatherCatV1.10B1784,2013-03-21 04:51:00,
2013-03-20 21:56:00,50.9,49.8,30.06,North,358,0.0,1.0,96,0.00,,,0.02,WeatherCatV1.10B1784,2013-03-21 04:56:00,
2013-03-20 22:01:00,50.8,49.7,30.06,NNW,342,0.0,2.0,96,0.00,,,0.02,WeatherCatV1.10B1784,2013-03-21 05:01:00,
2013-03-20 22:06:00,50.7,49.6,30.06,NNW,345,3.0,3.0,96,0.00,,,0.02,WeatherCatV1.10B1784,2013-03-21 05:06:00,
2013-03-20 22:11:00,50.6,49.5,30.06,North,354,1.0,2.0,96,0.00,,,0.02,WeatherCatV1.10B1784,2013-03-21 05:11:00,
2013-03-20 22:16:00,50.4,49.3,30.07,NNW,337,4.0,4.0,96,0.00,,,0.02,WeatherCatV1.10B1784,2013-03-21 05:16:00,
2013-03-20 22:21:00,50.1,49.0,30.07,NNW,338,2.0,3.0,96,0.00,,,0.02,WeatherCatV1.10B1784,2013-03-21 05:21:00,
2013-03-20 22:26:00,49.9,48.8,30.07,NNW,336,4.0,4.0,96,0.00,,,0.02,WeatherCatV1.10B1784,2013-03-21 05:26:00,
2013-03-20 22:31:00,49.8,48.7,30.06,NNW,348,3.0,4.0,96,0.00,,,0.02,WeatherCatV1.10B1784,2013-03-21 05:31:00,
2013-03-20 22:36:00,49.7,48.6,30.06,NNW,345,2.0,3.0,96,0.00,,,0.02,WeatherCatV1.10B1784,2013-03-21 05:36:00,
2013-03-20 22:41:00,49.7,48.6,30.06,NNW,332,2.0,4.0,96,0.00,,,0.02,WeatherCatV1.10B1784,2013-03-21 05:41:00,
2013-03-20 22:46:00,49.7,48.6,30.06,NW,326,3.0,3.0,96,0.00,,,0.02,WeatherCatV1.10B1784,2013-03-21 05:46:00,
2013-03-20 22:51:00,49.7,48.6,30.06,NNW,335,2.0,3.0,96,0.00,,,0.02,WeatherCatV1.10B1784,2013-03-21 05:51:00,
2013-03-20 22:56:00,49.6,48.8,30.06,NNW,335,2.0,4.0,97,0.00,,,0.02,WeatherCatV1.10B1784,2013-03-21 05:56:00,
2013-03-20 23:01:00,49.5,48.4,30.06,NNW,335,3.0,4.0,96,0.00,,,0.02,WeatherCatV1.10B1784,2013-03-21 06:01:00,
2013-03-20 23:06:00,49.3,48.2,30.06,NNW,332,3.0,3.0,96,0.00,,,0.02,WeatherCatV1.10B1784,2013-03-21 06:06:00,
2013-03-20 23:11:00,49.2,48.1,30.06,NNW,335,4.0,4.0,96,0.00,,,0.02,WeatherCatV1.10B1784,2013-03-21 06:11:00,
2013-03-20 23:16:00,49.0,47.9,30.06,NNW,336,1.0,4.0,96,0.00,,,0.02,WeatherCatV1.10B1784,2013-03-21 06:16:00,
2013-03-20 23:21:00,48.8,47.7,30.06,NNW,335,2.0,4.0,96,0.00,,,0.02,WeatherCatV1.10B1784,2013-03-21 06:21:00,
2013-03-20 23:26:00,48.7,47.6,30.06,NNW,346,4.0,5.0,96,0.00,,,0.02,WeatherCatV1.10B1784,2013-03-21 06:26:00,
2013-03-20 23:31:00,48.6,47.5,30.05,NNW,343,4.0,5.0,96,0.00,,,0.02,WeatherCatV1.10B1784,2013-03-21 06:31:00,
2013-03-20 23:36:00,48.5,47.4,30.05,NNW,339,4.0,5.0,96,0.00,,,0.02,WeatherCatV1.10B1784,2013-03-21 06:36:00,
2013-03-20 23:41:00,48.5,47.4,30.05,NNW,348,4.0,7.0,96,0.00,,,0.02,WeatherCatV1.10B1784,2013-03-21 06:41:00,
2013-03-20 23:46:00,48.5,47.7,30.06,NNW,330,4.0,5.0,97,0.00,,,0.02,WeatherCatV1.10B1784,2013-03-21 06:46:00,
2013-03-20 23:51:00,48.5,47.7,30.06,NW,321,2.0,4.0,97,0.00,,,0.02,WeatherCatV1.10B1784,2013-03-21 06:51:00,
2013-03-20 23:56:00,48.4,47.6,30.06,NNW,338,3.0,4.0,97,0.00,,,0.02,WeatherCatV1.10B1784,2013-03-21 06:56:00,